[[{"header":{"parameterUnit":"m.s-1","parameterCategory":1,"la1":30.2991,"la2":30.254,"lo1":-89.0895,"lo2":-89.0444,"dy":0.0017,"dx":0.0017,"nx":28,"ny":28,"refTime":"2025-08-30T21:00:00:Z","depth":0,"parameterNumber":2,"parameterNumberName":"U-component_of_WINDS"},"data":[0,0,0,0,0,0,0,0,0,0,0,0,0,0,0,0,0,0,0,0,0,0,0,0,0,0,0,0,0,0,0,0,0,0,0,0,0,0,0,0,0,0,0,0,0,0,0,0,0,0,0,0,0,0,0,0,0,0,-0.7712,-0.7712,0,-0.769,-0.769,-0.769,-0.7661,-0.7661,-0.766,-0.766,-0.7638,-0.7638,-0.7637,0,0,0,0,0,0,0,0,0,0,0,0,0,-0.7729,-0.7729,-0.7712,-0.7712,-0.7711,-0.769,-0.769,-0.7689,-0.7661,-0.7661,-0.766,-0.7659,-0.7638,-0.7638,-0.7637,0,0,0,0,0,0,0,0,0,0,0,0,0,-0.7716,-0.7729,-0.7712,-0.7695,-0.7693,-0.769,-0.769,-0.7689,-0.7661,-0.7661,-0.766,-0.7659,-0.7638,-0.7638,-0.7637,-0.765,0,0,-0.7637,-0.7637,0,0,0,0,0,0,0,0,-0.7717,-0.7715,-0.7697,-0.7696,-0.7694,-0.7678,-0.7688,-0.7676,-0.7661,-0.7673,-0.766,-0.7659,-0.7652,-0.765,-0.7648,-0.7649,-0.7648,-0.7637,-0.7636,-0.7636,-0.7636,0,0,0,0,0,0,0,-0.7718,-0.7716,-0.7703,-0.7697,-0.7695,-0.7688,-0.7685,-0.7685,-0.7667,-0.7672,-0.767,-0.7668,-0.765,-0.7648,-0.7647,-0.7648,-0.7637,-0.7636,-0.7636,-0.7636,-0.7658,-0.7658,0,0,0,0,0,0,-0.7721,-0.7717,-0.7704,-0.7703,-0.7704,-0.7688,-0.7685,-0.7683,-0.7667,-0.7663,-0.7668,-0.7667,-0.7649,-0.7647,-0.7646,-0.7659,-0.7636,-0.7636,-0.7636,-0.7657,-0.7658,-0.7659,0,0,0,0,0,0,-0.7722,-0.772,-0.7705,-0.7709,-0.7707,-0.7689,-0.7687,-0.7683,-0.7681,-0.7664,-0.766,-0.7669,-0.7648,-0.7646,-0.7649,-0.7658,-0.7636,-0.7636,-0.7656,-0.7657,-0.7658,-0.7686,0,0,0,0,0,0,-0.7722,-0.7721,-0.7725,-0.771,-0.7707,-0.7708,-0.7687,-0.7683,-0.768,-0.7678,-0.7664,-0.7661,-0.7647,-0.765,-0.7649,-0.7657,-0.7636,-0.7655,-0.7657,-0.7658,-0.7684,-0.7688,-0.7691,0,0,0,0,0,-0.7723,-0.7734,-0.7726,-0.7724,-0.7712,-0.7709,-0.7707,-0.7692,-0.7681,-0.7686,-0.7675,-0.7661,-0.7657,-0.765,-0.7649,-0.7658,-0.7655,-0.7656,-0.7658,-0.7683,-0.7687,-0.7691,0,0,0,0,0,0,-0.7751,-0.7732,-0.7722,-0.7728,-0.7721,-0.7704,-0.7709,-0.7697,-0.7692,-0.769,-0.7671,-0.7668,-0.7673,-0.7665,-0.7658,-0.7669,-0.7654,-0.7655,-0.7673,-0.7677,-0.7681,-0.7682,-0.7636,0,0,0,0,0,-0.7758,-0.7757,-0.774,-0.7748,-0.7744,-0.7727,-0.7726,-0.7714,-0.7705,-0.7702,-0.7691,-0.7683,-0.768,-0.7678,-0.7674,-0.7683,-0.7679,-0.7688,-0.7692,-0.7695,-0.7696,-0.7699,-0.7703,-0.7664,-0.7664,-0.7664,0,0,-0.7773,-0.7762,-0.7763,-0.7753,-0.7746,-0.7745,-0.7725,-0.7725,-0.7724,-0.7702,-0.7704,-0.7695,-0.7685,-0.7691,-0.7693,-0.7685,-0.7706,-0.7697,-0.7699,-0.7699,-0.7701,-0.7705,-0.7709,-0.7665,-0.7665,-0.7665,0,0,-0.7799,-0.7791,-0.7795,-0.7788,-0.7777,-0.7766,-0.7767,-0.7753,-0.7746,-0.7748,-0.7731,-0.773,-0.7725,-0.7718,-0.7714,-0.7737,-0.7724,-0.7736,-0.7754,-0.7758,-0.7761,-0.7763,-0.7771,-0.7774,-0.7738,-0.7738,-0.7738,0,-0.7818,-0.7816,-0.78,-0.7801,-0.7797,-0.7776,-0.7781,-0.7775,-0.7763,-0.7761,-0.7753,-0.7746,-0.7738,-0.7741,-0.7747,-0.7744,-0.7745,-0.7738,-0.7762,-0.7764,-0.7766,-0.7773,-0.7776,-0.774,-0.7739,-0.7739,-0.7739,0,-0.784,-0.7839,-0.7845,-0.7834,-0.783,-0.7834,-0.7817,-0.7816,-0.7805,-0.7795,-0.7796,-0.7786,-0.7779,-0.7779,-0.7769,-0.7781,-0.7776,-0.7765,-0.775,-0.7772,-0.7778,-0.7781,-0.7742,-0.7741,-0.7741,-0.774,0,0,-0.7883,-0.7863,-0.7865,-0.7859,-0.7846,-0.7845,-0.7847,-0.784,-0.7839,-0.7832,-0.7833,-0.7829,-0.7818,-0.7814,-0.7802,-0.7806,-0.7824,-0.7794,-0.7793,-0.7799,-0.7836,-0.7844,-0.7848,-0.7815,-0.7816,-0.7816,-0.7837,0,-0.7906,-0.7908,-0.7893,-0.7899,-0.7898,-0.7878,-0.788,-0.7872,-0.7862,-0.786,-0.7849,-0.7847,-0.7833,-0.783,-0.7832,-0.7821,-0.7831,-0.782,-0.7816,-0.7816,-0.7818,-0.7851,-0.786,-0.788,-0.7839,-0.784,-0.784,0,-0.7932,-0.7926,-0.7932,-0.7918,-0.7917,-0.7919,-0.7911,-0.7909,-0.7899,-0.7892,-0.7887,-0.7874,-0.7874,-0.786,-0.7861,-0.7854,-0.7851,-0.7845,-0.7846,-0.7844,-0.7829,-0.785,-0.7886,-0.7889,-0.7844,-0.7844,-0.7843,0,-0.7962,-0.7956,-0.7958,-0.7954,-0.7938,-0.7939,-0.7932,-0.7922,-0.7919,-0.7912,-0.791,-0.7904,-0.7901,-0.7896,-0.7882,-0.7873,-0.7884,-0.7868,-0.7877,-0.7878,-0.788,-0.788,-0.7915,-0.788,-0.788,-0.788,-0.788,0,-0.7989,-0.7993,-0.7971,-0.7973,-0.7977,-0.7959,-0.7964,-0.7955,-0.7946,-0.7945,-0.7929,-0.7928,-0.7909,-0.7907,-0.7895,-0.7897,-0.7896,-0.789,-0.7887,-0.7891,-0.7892,-0.7889,-0.7887,-0.788,-0.788,-0.788,-0.788,0,-0.8022,-0.8008,-0.8009,-0.7993,-0.799,-0.7993,-0.798,-0.798,-0.797,-0.7969,-0.7968,-0.7952,-0.7948,-0.7933,-0.7926,-0.7918,-0.7923,-0.7918,-0.7927,-0.7924,-0.7934,-0.7933,-0.7968,-0.7971,-0.7934,-0.7935,-0.7935,0,-0.804,-0.8042,-0.8027,-0.8025,-0.8019,-0.8017,-0.8013,-0.7997,-0.7994,-0.7983,-0.7985,-0.798,-0.7974,-0.7969,-0.7957,-0.7951,-0.7945,-0.7957,-0.7944,-0.7948,-0.7944,-0.7944,-0.7943,-0.796,-0.796,-0.7961,-0.7961,0,-0.8072,-0.8065,-0.8061,-0.8054,-0.805,-0.8044,-0.8037,-0.8037,-0.8018,-0.8016,-0.8012,-0.8008,-0.8001,-0.7996,-0.7988,-0.7981,-0.7968,-0.7966,-0.7967,-0.7971,-0.7976,-0.7973,-0.7934,-0.7965,-0.7964,-0.7964,-0.7964,-0.7964,-0.8097,-0.8099,-0.8088,-0.8084,-0.8077,-0.8071,-0.807,-0.806,-0.8056,-0.8048,-0.8039,-0.8036,-0.8026,-0.8014,-0.8008,-0.8005,-0.7998,-0.8,-0.8001,-0.8001,-0.8003,-0.7977,-0.8004,-0.8003,-0.8003,-0.8003,-0.8003,0,-0.8128,-0.812,-0.8117,-0.8107,-0.8104,-0.8092,-0.8084,-0.8082,-0.808,-0.8071,-0.8067,-0.8062,-0.8057,-0.8044,-0.8037,-0.8038,-0.8031,-0.8036,-0.8036,-0.8034,-0.801,-0.8009,-0.8041,-0.8041,-0.8041,-0.8041,-0.8041,-0.8041,-0.8144,-0.8145,-0.8137,-0.8134,-0.8126,-0.8123,-0.8119,-0.8113,-0.8107,-0.8102,-0.8098,-0.8089,-0.8079,-0.8072,-0.8066,-0.8063,-0.8061,-0.8068,-0.8062,-0.804,-0.8036,-0.8033,-0.8031,-0.8068,-0.8068,-0.8086,-0.8086,-0.8086]},{"header":{"parameterUnit":"m.s-1","parameterCategory":1,"la1":30.2991,"la2":30.254,"lo1":-89.0895,"lo2":-89.0444,"dy":0.0017,"dx":0.0017,"nx":28,"ny":28,"refTime":"2025-08-30T21:00:00:Z","depth":0,"parameterNumber":3,"parameterNumberName":"V-component_of_WINDS"},"data":[0,0,0,0,0,0,0,0,0,0,0,0,0,0,0,0,0,0,0,0,0,0,0,0,0,0,0,0,0,0,0,0,0,0,0,0,0,0,0,0,0,0,0,0,0,0,0,0,0,0,0,0,0,0,0,0,0,0,-2.3088,-2.3089,0,-2.3132,-2.3132,-2.3133,-2.3141,-2.3141,-2.314,-2.314,-2.3181,-2.3182,-2.3184,0,0,0,0,0,0,0,0,0,0,0,0,0,-2.3011,-2.3012,-2.3088,-2.3089,-2.3089,-2.3132,-2.3132,-2.3133,-2.3141,-2.3141,-2.314,-2.314,-2.3181,-2.3182,-2.3184,0,0,0,0,0,0,0,0,0,0,0,0,0,-2.3048,-2.3013,-2.3088,-2.3099,-2.31,-2.3132,-2.3132,-2.3133,-2.3141,-2.3141,-2.314,-2.314,-2.318,-2.3182,-2.3184,-2.3207,0,0,-2.3191,-2.3192,0,0,0,0,0,0,0,0,-2.3046,-2.3051,-2.3097,-2.3098,-2.31,-2.3131,-2.312,-2.3158,-2.3141,-2.3125,-2.314,-2.3139,-2.3164,-2.3168,-2.3177,-2.3209,-2.3211,-2.3191,-2.3192,-2.3193,-2.3194,0,0,0,0,0,0,0,-2.3044,-2.3049,-2.3105,-2.3097,-2.3099,-2.3101,-2.3105,-2.3127,-2.3147,-2.3127,-2.3127,-2.3133,-2.3165,-2.3175,-2.3178,-2.3212,-2.3191,-2.3193,-2.3194,-2.3195,-2.3268,-2.3269,0,0,0,0,0,0,-2.3039,-2.3047,-2.3104,-2.3107,-2.3071,-2.3102,-2.3108,-2.3121,-2.3147,-2.315,-2.3133,-2.3133,-2.3171,-2.3175,-2.3179,-2.321,-2.3193,-2.3195,-2.3196,-2.3267,-2.3268,-2.3269,0,0,0,0,0,0,-2.3038,-2.3044,-2.3102,-2.3077,-2.3085,-2.3104,-2.3119,-2.3122,-2.3132,-2.3152,-2.3155,-2.3139,-2.3171,-2.3176,-2.3201,-2.3211,-2.3196,-2.3198,-2.3267,-2.3268,-2.3269,-2.327,0,0,0,0,0,0,-2.3036,-2.3044,-2.3053,-2.3077,-2.3086,-2.3124,-2.312,-2.3123,-2.3136,-2.3136,-2.3159,-2.3162,-2.3171,-2.3198,-2.3203,-2.3214,-2.32,-2.3266,-2.3267,-2.3268,-2.3269,-2.3271,-2.3272,0,0,0,0,0,-2.3033,-2.305,-2.3053,-2.306,-2.3098,-2.3124,-2.3129,-2.314,-2.3137,-2.3146,-2.3159,-2.3161,-2.321,-2.3201,-2.3207,-2.3218,-2.3265,-2.3267,-2.3268,-2.3268,-2.327,-2.3272,0,0,0,0,0,0,-2.3024,-2.3054,-2.3057,-2.3083,-2.3102,-2.3126,-2.3137,-2.3142,-2.3161,-2.316,-2.3172,-2.3177,-2.3202,-2.3212,-2.3202,-2.3243,-2.3237,-2.324,-2.3235,-2.3237,-2.3239,-2.3236,-2.3201,0,0,0,0,0,-2.3026,-2.3046,-2.307,-2.309,-2.31,-2.3117,-2.3129,-2.3137,-2.3155,-2.3162,-2.3177,-2.3195,-2.3214,-2.3226,-2.3245,-2.3271,-2.3277,-2.3282,-2.3284,-2.3285,-2.3287,-2.3303,-2.3306,-2.3274,-2.3274,-2.3274,0,0,-2.3028,-2.3047,-2.3058,-2.3089,-2.3104,-2.3124,-2.3123,-2.3144,-2.3159,-2.3165,-2.319,-2.3202,-2.3222,-2.3248,-2.326,-2.3258,-2.3298,-2.3287,-2.3288,-2.3289,-2.3305,-2.3308,-2.3311,-2.3275,-2.3275,-2.3275,0,0,-2.3044,-2.3059,-2.3079,-2.3095,-2.3119,-2.3131,-2.3136,-2.316,-2.3169,-2.3194,-2.32,-2.3218,-2.3251,-2.3266,-2.3278,-2.3302,-2.3305,-2.3308,-2.3316,-2.3332,-2.3334,-2.3337,-2.3346,-2.3349,-2.331,-2.331,-2.331,0,-2.3043,-2.3074,-2.3089,-2.311,-2.3124,-2.3133,-2.3154,-2.3168,-2.3196,-2.3205,-2.3202,-2.3246,-2.326,-2.329,-2.3297,-2.3306,-2.3312,-2.3305,-2.3333,-2.3335,-2.3338,-2.3347,-2.335,-2.331,-2.331,-2.331,-2.331,0,-2.3074,-2.3095,-2.3109,-2.3138,-2.3153,-2.3174,-2.3191,-2.3205,-2.3212,-2.3225,-2.3252,-2.327,-2.3293,-2.3301,-2.3307,-2.3333,-2.3331,-2.3331,-2.3325,-2.3341,-2.335,-2.3353,-2.3311,-2.331,-2.331,-2.331,0,0,-2.3082,-2.3122,-2.3126,-2.3141,-2.3169,-2.3185,-2.3207,-2.3232,-2.3244,-2.3264,-2.3283,-2.3312,-2.3312,-2.3326,-2.3334,-2.3348,-2.3368,-2.3346,-2.3347,-2.335,-2.3399,-2.3399,-2.3402,-2.337,-2.3371,-2.3371,-2.3397,0,-2.3101,-2.3141,-2.3156,-2.3189,-2.321,-2.3221,-2.324,-2.3259,-2.3272,-2.3291,-2.3305,-2.3326,-2.3325,-2.3333,-2.3348,-2.3362,-2.3378,-2.3361,-2.3387,-2.3388,-2.3382,-2.3407,-2.3407,-2.343,-2.34,-2.3401,-2.3401,0,-2.3127,-2.315,-2.3186,-2.3214,-2.3223,-2.324,-2.3265,-2.3284,-2.3306,-2.3315,-2.3332,-2.334,-2.3363,-2.3357,-2.339,-2.3378,-2.339,-2.3399,-2.3401,-2.3403,-2.3395,-2.341,-2.3437,-2.3441,-2.3407,-2.3406,-2.3406,0,-2.3131,-2.317,-2.3197,-2.3209,-2.3242,-2.3254,-2.3269,-2.3291,-2.3306,-2.3328,-2.3338,-2.3361,-2.3374,-2.3392,-2.3407,-2.3401,-2.3439,-2.3433,-2.3446,-2.3446,-2.3453,-2.3452,-2.3482,-2.3461,-2.3461,-2.3461,-2.3461,0,-2.315,-2.3172,-2.32,-2.3216,-2.3241,-2.3258,-2.3282,-2.3297,-2.3318,-2.3337,-2.3347,-2.3365,-2.3384,-2.3404,-2.3415,-2.3442,-2.3447,-2.3454,-2.3457,-2.3454,-2.3453,-2.3461,-2.346,-2.3462,-2.3462,-2.3462,-2.3461,0,-2.3158,-2.3177,-2.3208,-2.3238,-2.3246,-2.3263,-2.3289,-2.3305,-2.332,-2.3345,-2.3352,-2.3374,-2.3399,-2.3416,-2.3447,-2.3455,-2.3483,-2.3485,-2.3476,-2.3477,-2.3489,-2.3488,-2.3526,-2.3532,-2.3507,-2.3507,-2.3507,0,-2.3168,-2.3186,-2.3219,-2.3234,-2.3249,-2.3272,-2.3288,-2.3306,-2.3323,-2.3352,-2.3365,-2.3391,-2.3413,-2.3452,-2.347,-2.3495,-2.3498,-2.351,-2.3501,-2.3498,-2.3499,-2.3497,-2.3499,-2.351,-2.3511,-2.3511,-2.3511,0,-2.3186,-2.3196,-2.3219,-2.3247,-2.3266,-2.3288,-2.331,-2.3322,-2.3344,-2.3362,-2.3389,-2.3406,-2.3439,-2.3465,-2.3492,-2.3506,-2.3512,-2.3514,-2.3518,-2.3514,-2.3508,-2.3512,-2.3479,-2.3512,-2.3512,-2.3512,-2.3512,-2.3512,-2.3195,-2.3212,-2.3239,-2.3265,-2.3285,-2.3306,-2.3324,-2.3342,-2.3365,-2.3395,-2.3404,-2.3432,-2.3456,-2.3493,-2.3508,-2.353,-2.3529,-2.3535,-2.3537,-2.3538,-2.3538,-2.3505,-2.3535,-2.3535,-2.3535,-2.3535,-2.3535,0,-2.3214,-2.3232,-2.3257,-2.3289,-2.331,-2.3317,-2.3342,-2.3359,-2.3384,-2.3407,-2.3429,-2.3461,-2.3487,-2.3509,-2.3535,-2.3549,-2.3553,-2.3555,-2.3554,-2.3558,-2.3537,-2.3531,-2.3552,-2.3552,-2.3552,-2.3552,-2.3552,-2.3552,-2.3226,-2.3255,-2.3268,-2.3308,-2.3326,-2.3355,-2.3369,-2.3389,-2.3408,-2.3443,-2.3465,-2.348,-2.3503,-2.3532,-2.3556,-2.3562,-2.3572,-2.3574,-2.358,-2.3561,-2.3559,-2.3557,-2.3551,-2.3576,-2.3576,-2.3598,-2.3599,-2.3599]}]]